Total_Precipitation_Accumulation
0.02 0.09 0.31 0.46 0.47 0.47 0.46 0.44 0.41 0.36 0.35 0.39 0.44 0.48 0.51 0.47 0.44 0.40 0.38 0.40 0.45 0.48 0.54 0.61 0.64 0.66 0.65 0.64 0.60 0.53 0.52 0.52 0.53 0.50 0.53 0.58 0.59 0.54 0.48 0.44 0.33 0.39 0.60
0.03 0.10 0.28 0.37 0.40 0.43 0.45 0.43 0.40 0.35 0.34 0.38 0.42 0.43 0.43 0.44 0.44 0.45 0.43 0.43 0.44 0.50 0.57 0.64 0.63 0.63 0.64 0.61 0.56 0.47 0.43 0.39 0.39 0.38 0.35 0.33 0.49 0.55 0.49 0.51 0.46 0.65 0.76
0.02 0.08 0.20 0.30 0.36 0.39 0.41 0.39 0.38 0.37 0.37 0.39 0.41 0.41 0.40 0.41 0.43 0.47 0.48 0.48 0.48 0.45 0.48 0.55 0.59 0.59 0.57 0.51 0.47 0.41 0.40 0.34 0.28 0.28 0.26 0.20 0.39 0.64 0.62 0.62 0.58 0.76 0.77
0.02 0.07 0.13 0.25 0.32 0.36 0.39 0.39 0.41 0.42 0.41 0.47 0.46 0.44 0.44 0.44 0.43 0.46 0.48 0.47 0.47 0.45 0.45 0.47 0.47 0.48 0.44 0.37 0.36 0.37 0.39 0.35 0.26 0.21 0.12 0.12 0.36 0.68 0.74 0.68 0.64 0.68 0.73
0.03 0.07 0.15 0.26 0.32 0.35 0.40 0.42 0.42 0.42 0.45 0.52 0.53 0.50 0.48 0.49 0.48 0.48 0.46 0.45 0.42 0.42 0.42 0.44 0.40 0.39 0.38 0.36 0.35 0.36 0.36 0.32 0.25 0.17 0.08 0.10 0.28 0.62 0.64 0.62 0.58 0.62 0.67
0.03 0.06 0.15 0.26 0.34 0.35 0.38 0.39 0.40 0.41 0.45 0.51 0.51 0.51 0.51 0.54 0.51 0.48 0.45 0.44 0.40 0.39 0.41 0.41 0.39 0.39 0.37 0.35 0.36 0.41 0.41 0.36 0.24 0.13 0.10 0.11 0.18 0.43 0.57 0.63 0.62 0.59 0.55
0.05 0.08 0.15 0.28 0.36 0.37 0.39 0.41 0.43 0.45 0.48 0.49 0.50 0.51 0.53 0.56 0.54 0.49 0.43 0.41 0.39 0.37 0.39 0.40 0.37 0.38 0.39 0.37 0.37 0.42 0.49 0.40 0.24 0.23 0.18 0.16 0.20 0.36 0.50 0.61 0.64 0.61 0.59
0.06 0.10 0.19 0.34 0.40 0.41 0.43 0.42 0.45 0.48 0.52 0.52 0.50 0.51 0.55 0.59 0.56 0.51 0.46 0.43 0.41 0.38 0.38 0.35 0.31 0.31 0.34 0.38 0.39 0.40 0.44 0.33 0.26 0.30 0.34 0.30 0.30 0.41 0.52 0.59 0.63 0.64 0.67
0.08 0.13 0.23 0.37 0.44 0.50 0.52 0.50 0.51 0.54 0.57 0.57 0.55 0.53 0.54 0.58 0.55 0.51 0.45 0.44 0.42 0.40 0.39 0.34 0.29 0.27 0.28 0.29 0.32 0.34 0.35 0.31 0.35 0.45 0.39 0.43 0.39 0.51 0.60 0.58 0.61 0.67 0.70
0.12 0.17 0.26 0.36 0.45 0.50 0.54 0.54 0.54 0.53 0.55 0.58 0.57 0.57 0.53 0.53 0.56 0.52 0.44 0.42 0.43 0.42 0.41 0.39 0.35 0.31 0.30 0.27 0.26 0.28 0.29 0.28 0.28 0.36 0.45 0.39 0.40 0.61 0.75 0.70 0.64 0.66 0.71
0.20 0.23 0.31 0.39 0.48 0.57 0.60 0.57 0.60 0.61 0.61 0.63 0.61 0.60 0.60 0.55 0.53 0.50 0.44 0.40 0.41 0.43 0.43 0.41 0.39 0.37 0.34 0.28 0.25 0.26 0.25 0.19 0.24 0.34 0.38 0.34 0.44 0.67 0.89 0.85 0.78 0.72 0.73
0.22 0.27 0.34 0.40 0.50 0.63 0.69 0.70 0.73 0.70 0.63 0.62 0.55 0.56 0.58 0.58 0.56 0.50 0.45 0.42 0.42 0.45 0.47 0.47 0.43 0.40 0.37 0.27 0.24 0.28 0.20 0.14 0.15 0.16 0.18 0.23 0.35 0.56 0.86 0.96 0.92 0.88 0.86
0.21 0.29 0.37 0.45 0.52 0.63 0.70 0.73 0.72 0.72 0.65 0.62 0.56 0.54 0.55 0.60 0.57 0.54 0.52 0.52 0.50 0.46 0.48 0.51 0.54 0.49 0.44 0.37 0.31 0.30 0.22 0.19 0.17 0.13 0.11 0.17 0.23 0.39 0.62 0.82 1.00 1.03 1.05
0.23 0.32 0.41 0.50 0.59 0.68 0.73 0.76 0.72 0.67 0.62 0.57 0.58 0.57 0.57 0.56 0.52 0.48 0.44 0.42 0.43 0.41 0.41 0.45 0.48 0.50 0.52 0.49 0.41 0.33 0.32 0.30 0.25 0.21 0.17 0.20 0.21 0.30 0.50 0.68 0.87 1.03 1.13
0.21 0.33 0.44 0.54 0.60 0.70 0.79 0.77 0.75 0.68 0.60 0.57 0.59 0.58 0.56 0.54 0.49 0.46 0.43 0.43 0.41 0.37 0.35 0.38 0.37 0.35 0.37 0.41 0.42 0.38 0.37 0.34 0.30 0.30 0.27 0.28 0.25 0.26 0.41 0.59 0.74 0.94 1.12
0.23 0.33 0.44 0.55 0.61 0.69 0.77 0.77 0.74 0.71 0.68 0.65 0.59 0.55 0.56 0.56 0.52 0.47 0.44 0.41 0.41 0.40 0.37 0.35 0.35 0.33 0.29 0.27 0.26 0.26 0.32 0.34 0.35 0.35 0.31 0.31 0.29 0.27 0.33 0.49 0.66 0.84 1.07
0.26 0.35 0.46 0.52 0.62 0.68 0.73 0.80 0.80 0.76 0.73 0.73 0.66 0.61 0.61 0.61 0.61 0.56 0.51 0.45 0.41 0.40 0.40 0.41 0.40 0.37 0.33 0.28 0.25 0.23 0.23 0.24 0.28 0.32 0.32 0.32 0.33 0.31 0.31 0.41 0.57 0.73 0.93
0.29 0.39 0.51 0.56 0.61 0.67 0.70 0.81 0.81 0.83 0.78 0.77 0.79 0.73 0.67 0.65 0.65 0.64 0.63 0.60 0.54 0.49 0.46 0.45 0.43 0.42 0.38 0.34 0.30 0.26 0.25 0.25 0.24 0.25 0.27 0.30 0.34 0.35 0.34 0.39 0.49 0.66 0.84
0.26 0.37 0.51 0.60 0.64 0.67 0.70 0.80 0.89 0.89 0.87 0.82 0.83 0.84 0.75 0.72 0.70 0.67 0.66 0.67 0.70 0.67 0.57 0.51 0.45 0.41 0.40 0.35 0.33 0.31 0.29 0.26 0.26 0.27 0.25 0.23 0.25 0.30 0.35 0.38 0.44 0.56 0.71
0.26 0.37 0.51 0.65 0.72 0.75 0.81 0.84 0.97 1.01 0.93 0.87 0.82 0.85 0.83 0.78 0.76 0.75 0.70 0.67 0.70 0.72 0.69 0.58 0.50 0.46 0.41 0.40 0.37 0.36 0.35 0.33 0.29 0.26 0.25 0.24 0.23 0.25 0.32 0.37 0.40 0.47 0.58
0.32 0.38 0.51 0.63 0.76 0.81 0.88 0.87 0.85 0.92 0.93 0.87 0.80 0.83 0.94 0.91 0.83 0.84 0.82 0.79 0.75 0.71 0.67 0.62 0.57 0.54 0.51 0.47 0.48 0.47 0.42 0.39 0.38 0.32 0.27 0.25 0.25 0.24 0.28 0.36 0.42 0.43 0.51
0.33 0.38 0.49 0.63 0.74 0.78 0.78 0.84 0.83 0.87 0.89 0.92 0.88 0.88 0.95 1.02 0.96 0.88 0.86 0.86 0.82 0.74 0.69 0.64 0.62 0.65 0.62 0.54 0.52 0.56 0.57 0.53 0.45 0.38 0.33 0.28 0.27 0.28 0.29 0.31 0.39 0.44 0.47
0.30 0.34 0.40 0.56 0.75 0.81 0.79 0.89 0.97 1.04 1.09 1.08 1.01 0.94 0.96 0.99 0.97 0.90 0.83 0.78 0.82 0.80 0.74 0.68 0.64 0.64 0.66 0.61 0.53 0.63 0.75 0.65 0.46 0.38 0.35 0.31 0.28 0.29 0.29 0.30 0.34 0.42 0.47
0.32 0.36 0.38 0.48 0.64 0.84 0.87 0.89 0.95 1.00 1.02 1.06 1.00 0.93 0.93 0.99 1.02 0.96 0.92 0.84 0.78 0.77 0.72 0.68 0.66 0.65 0.70 0.70 0.60 0.54 0.58 0.61 0.65 0.52 0.38 0.36 0.36 0.34 0.32 0.30 0.31 0.37 0.45
0.39 0.46 0.46 0.50 0.58 0.78 0.84 0.84 0.89 0.93 0.95 1.02 1.06 1.00 0.97 1.01 1.07 1.07 1.03 0.97 0.91 0.82 0.72 0.67 0.67 0.69 0.71 0.72 0.67 0.60 0.54 0.48 0.50 0.64 0.52 0.44 0.49 0.46 0.44 0.40 0.38 0.39 0.44
0.44 0.55 0.55 0.58 0.58 0.70 0.86 0.85 0.82 0.86 0.89 0.94 1.00 1.06 1.07 1.05 1.06 1.06 1.06 1.01 0.96 0.94 0.86 0.75 0.71 0.71 0.71 0.71 0.72 0.69 0.67 0.66 0.58 0.61 0.60 0.48 0.48 0.47 0.49 0.53 0.52 0.51 0.54